#timestamp,LO_Frequency,Hit,StdDev 
1597766415.7,286046998.8,N
1597766435.6,286046998.9,N
1597766455.4,286046998.4,N
1597766475.2,286046998.4,N
1597766495.1,286046998.4,N
1597766496.0,286046998.4,N
1597766515.8,286046998.6,N
1597766535.7,286047000.7,N
1597766555.5,286047001.0,N
1597766575.3,286047000.8,N
1597766595.2,286047000.8,N
1597766615.0,286046998.5,N
1597766615.9,286046998.5,N
1597766635.8,286046999.1,N
1597766655.6,286046998.9,N
1597766675.4,286046998.2,N
1597766695.3,286046999.1,N
1597766715.1,286046999.3,N
1597766735.8,286047001.2,N
1597766755.7,286046999.4,N
1597766775.5,286046999.6,N
1597766795.4,286046999.4,N
1597766815.2,286046999.0,N
1597766835.0,286046999.2,N
1597766835.9,286046999.2,N
1597766855.8,286046999.5,N
1597766875.6,286046999.0,N
1597766895.4,286046999.4,N
1597766915.3,286047000.7,N
1597766935.1,286046998.5,N
1597766955.9,286046998.8,N
1597766975.7,286047001.1,N
1597766995.5,286046998.1,N
1597767015.4,286046998.2,N
1597767035.2,286047001.2,N
1597767055.1,286047000.7,N
1597767056.0,286047000.7,N
1597767075.8,286046998.2,N
1597767095.6,286046998.6,N
1597767115.5,286047000.8,N
1597767135.3,286046998.8,N
1597767155.1,286046998.8,N
1597767175.9,286046998.5,N
1597767195.7,286046999.3,N
1597767215.6,286046997.0,Y
1597767235.4,286046997.0,P
1597767255.2,286046999.1,N
1597767275.1,286046999.5,N
1597767276.0,286046999.5,N
1597767295.8,286046999.1,N
1597767315.7,286046998.7,N
1597767335.5,286046999.3,N
1597767355.3,286046998.3,N
1597767375.2,286046998.1,N
1597767395.9,286047000.5,N
1597767415.7,286046999.9,N
1597767435.6,286047001.1,N
1597767455.4,286047000.8,N
1597767475.3,286047000.9,N
1597767495.1,286047002.4,N
1597767496.0,286047002.4,N
1597767515.8,286047000.2,N
1597767535.7,286046998.2,N
1597767555.5,286046998.3,N
1597767575.3,286047001.2,N
1597767595.2,286047000.9,N
1597767615.0,286047000.0,N
1597767615.9,286047000.0,N
1597767635.8,286047002.8,N
1597767655.6,286047000.1,N
1597767675.4,286047000.3,N
1597767695.3,286047000.6,N
1597767715.1,286047002.3,N
1597767735.8,286047002.1,N
1597767755.7,286047004.0,N
1597767775.5,286047004.1,N
1597767795.4,286047003.2,N
1597767815.2,286047003.7,N
1597767835.0,286047003.3,N
1597767835.9,286047003.3,N
1597767855.8,286047005.6,Y
1597767875.6,286047004.2,P
1597767895.5,286047005.6,P
1597767915.3,286047004.6,N
1597767935.1,286047004.9,N
1597767955.9,286047004.8,Y
1597767975.7,286047002.2,P
1597767995.6,286047002.8,N
1597768015.4,286047002.5,P
1597768035.2,286047002.5,Y
1597768055.1,286046997.0,P
1597768056.0,286046997.0,N
1597768075.8,286046994.9,N
1597768095.6,286046995.2,N
1597768115.5,286046995.2,N
1597768135.3,286046996.2,N
1597768155.2,286046993.5,N
1597768175.9,286046994.1,N
1597768195.7,286046994.0,N
1597768215.6,286046994.6,N
1597768235.4,286046996.2,N
1597768255.2,286046996.2,N
1597768275.1,286046996.4,N
1597768276.0,286046996.4,N
1597768295.8,286046993.3,Y
1597768315.7,286046998.9,P
1597768335.5,286046999.4,N
1597768355.3,286046996.5,N
1597768375.2,286047001.2,N
1597768395.0,286047000.5,N
1597768395.9,286047000.5,N
1597768415.8,286046998.1,N
1597768435.6,286047001.1,N
1597768455.4,286046998.7,N
1597768475.3,286046998.5,N
1597768495.1,286046998.8,N
1597768515.8,286046999.5,N
1597768535.7,286046997.5,N
1597768555.5,286046998.0,N
1597768575.4,286046995.3,Y
1597768595.2,286046997.9,P
1597768615.0,286046997.0,P
1597768615.9,286046997.0,P
1597768635.8,286046997.7,Y
1597768655.6,286047001.2,P
1597768675.5,286046998.2,N
1597768695.3,286046998.2,N
1597768715.1,286047000.6,N
1597768735.9,286047000.5,N
1597768755.7,286047000.9,N
1597768775.6,286046998.2,N
1597768795.4,286047001.1,N
1597768815.2,286046998.5,N
1597768835.1,286046998.1,N
1597768836.0,286046998.1,N
1597768855.8,286047001.1,N
1597768875.6,286047000.2,N
1597768895.5,286047000.3,N
1597768915.3,286047000.9,N
1597768935.2,286046998.1,N
1597768955.9,286047000.9,N
1597768975.7,286047000.3,N
1597768995.6,286047001.1,N
1597769015.4,286047000.8,N
1597769035.2,286047001.2,N
1597769055.1,286046998.5,N
1597769056.0,286046998.5,N
1597769075.8,286046999.3,N
1597769095.7,286046999.0,N
1597769115.5,286046998.9,N
1597769135.3,286046999.5,N
1597769155.2,286046997.7,N
1597769175.0,286046996.7,N
1597769175.9,286046996.7,N
1597769195.8,286046997.2,N
1597769215.6,286046996.6,N
1597769235.4,286046998.9,N
1597769255.3,286046998.3,N
1597769275.1,286046996.5,N
1597769295.8,286046999.1,N
1597769315.7,286046999.2,N
1597769335.5,286046999.6,N
1597769355.4,286046999.5,N
1597769375.2,286046997.1,N
1597769395.0,286046997.8,N
1597769395.9,286046997.8,N
1597769415.8,286046997.5,N
1597769435.6,286046997.5,N
1597769455.4,286046997.3,N
1597769475.3,286046997.4,N
1597769495.1,286046996.5,N
1597769515.9,286046996.8,N
1597769535.7,286046997.8,N
1597769555.5,286046997.0,N
1597769605.4,286046999.6,E
1597769615.3,286046997.2,N
1597769635.2,286046996.8,P
1597769655.0,286046999.6,N
1597769655.9,286046999.6,N
1597769675.7,286046996.8,N
1597769695.6,286046996.8,N
1597769715.4,286046999.3,N
1597769735.3,286046996.9,N
1597769755.1,286046999.2,N
1597769756.0,286046999.2,N
1597769775.8,286046998.9,N
1597769795.7,286047000.9,N
1597769815.5,286047000.6,N
1597769835.4,286047001.0,N
1597769855.2,286047000.3,N
1597769875.0,286047001.1,N
1597769875.9,286047001.1,N
1597769895.8,286047000.7,N
1597769915.6,286046999.9,N
1597769935.4,286047000.6,N
1597769955.3,286047001.0,N
1597769975.1,286047001.1,N
1597769995.9,286047000.8,N
